STARLINK-34783, 66337

Orbit data source: Space-Track

STARLINK-34783, 66337 is a payload satellite owned by SpaceX/Seattle (US) in LEO that was launched on Thu, 06 Nov 2025 UTC via an FALCON 9 launch vehicle from the Air Force Eastern Test Range (AFETR). Payload-class satellites include a variety of spacecraft equipped with specific instruments for various scientific and technological missions. These include communications satellites like Starlink; space stations such as the ISS; scientific satellites like the Hubble; Earth observation satellites from companies like Planet Labs, Umbra, and HawkEye 360; GPS; miniature CubeSats for education and research; and military/defense satellites.

Loading next visibility...
Identifier
66337, 2025-253U
Orbit
LEO
Country
Flag of USUS
Related business
Manufacturer
SpaceX/Seattle
Mission
Operational Commercial Communications
Bus & Motor
STARLINK V2MO, Unknown motor
Mass
575 kg wet, ~530 kg dry
Launch date (UTC)
2025-11-06 (7 months ago)
Launch vehicle
FALCON 9
Launch site
Air Force Eastern Test Range (AFETR)
Object type
Payload
Rocket body
Debris
Shape & HBR
Box + 2 Pan, 17.7 m
Radar Cross Section
36.964 m², Large (>1 m²)

Expand to show TLE details & history
Last TLE update: 14 hours ago

TLE from 14 hours ago
0 STARLINK-34783
1 66337U 25253U   26170.58858224  .00012574  00000-0  46549-3 0  9990
2 66337  43.0042 357.4683 0002500 286.3051  73.7526 15.27591667 35825
Epoch: 2026-06-19T14:07Z
TLE epoch observation values (Epoch: 2026-06-19T14:07:33.505Z)
Latitude
Longitude
-122.2367°
Altitude
482.311 km
Speed
7.626 km/s
True Right ascension
23h 49m 52s
True Declination
0° 00' 00"
Sunlit
Object was in daylight at epoch
Visualization orbit readout
Latitude
Unknown
Longitude
Unknown
Altitude
Unknown
Speed
Unknown
Apparent Right ascension
Unknown
Apparent Declination
Unknown
Sunlit
N/A
Visualization observer readout
Local Sidereal Time
14:31:08
Azimuth
Unknown
Elevation
Unknown
Doppler factor
Unknown
Orbital elements
Apogee altitude
486.674 km
Perigee altitude
483.243 km
Semi-major axis
6,863.096 km
Eccentricity
0.00025
Inclination
43.0042°
RAAN
357.4683°
Arg. of periapsis
286.3051°
True anomaly
73.78011°
Mean anomaly
73.7526°
Eccentric anomaly
73.76635°
Mean motion
3.81736 °/min
Orbital period
94.31 mins
BSTAR
0.00046549
Loading maneuver chart data...
Computing Atmospheric mass density...
Loading historical data...
Loading historical data...
Loading historical data...
Loading historical data...
Loading historical data...
Loading historical data...
Loading historical data...

Documentation

Showing up to 5 results
|